Location: Monrovia
(34.7865°N, 86.7139°W)
Time: 22:01:04
(UTC+00:00)

OAO 3 Copernicus - Pass Details

Date: 14 July 2020
Orbit: 695 x 704 km, 35.0° (Epoch: 08 August)

Event Time Altitude Azimuth Distance (km) Brightness Sun altitude
Rises 03:08:29 0° 275° (W) 3,080 8.3 -21.4°
Reaches altitude 10° 03:10:53 10° 275° (W) 2,161 7.4 -21.8°
Maximum altitude 03:15:58 89° 194° (SSW) 703 4.2 -22.4°
Enters shadow 03:17:08 54° 98° (E) 847 4.4 -22.6°
